Regional Weather Roundup
Issued by NWS

Home | Current Version | Previous Version | Graphics & Text | Print | Product List | Glossary On
Versions: 1 2 3 4 5 6 7 8 9 10 11 12 13 14 15 16 17 18 19 20 21 22 23 24 25 26 27 28 29 30 31 32 33 34 35 36 37 38 39 40 41 42 43 44 45 46 47 48 49 50
000
ASUS43 KOAX 191902
RWRNE

WEATHER ROUNDUP FOR NEBRASKA
NATIONAL WEATHER SERVICE OMAHA NE
200 PM CDT THU APR 19 2018

NOTES: SATELLITE DATA IS BEING USED TO AUGMENT CLOUD COVER ABOVE
       12000 FEET.
       "FAIR" INDICATES FEW OR NO CLOUDS BELOW 12,000 FEET WITH NO
       SIGNIFICANT WEATHER AND/OR OBSTRUCTIONS TO VISIBILITY.


NEZ001>004-019>022-054>056-192000-
NEBRASKA PANHANDLE

CITY           SKY/WX    TMP DP  RH WIND       PRES   REMARKS
SCOTTSBLUFF    MOSUNNY   58  30  34 SE23G31   30.21F
ALLIANCE       PTSUNNY   56  33  42 SE24G30   30.25F
CHADRON        PTSUNNY   59  32  36 S24G30    30.24F
GORDON         FAIR      55  30  39 S10G17    30.29F
KIMBALL        PTSUNNY   55  24  29 SE26G37   30.21F
SIDNEY         MOSUNNY   57  27  31 S28G37    30.25F
$$

NEZ057>060-069>072-079>082-192000-
SOUTHWEST NEBRASKA

CITY           SKY/WX    TMP DP  RH WIND       PRES   REMARKS
NORTH PLATTE   SUNNY     57  32  38 SE12      30.35F
IMPERIAL       SUNNY     58  30  34 SE17      30.31F
LEXINGTON      SUNNY     52  31  44 E5        30.40F
MCCOOK         SUNNY     56  28  34 E14G20    30.36F
OGALLALA       MOSUNNY   58  29  33 SE14G22   30.31F
$$

NEZ005>010-023>029-035>040-094-192000-
NORTH CENTRAL NEBRASKA

CITY           SKY/WX    TMP DP  RH WIND       PRES   REMARKS
VALENTINE      PTSUNNY   51  29  42 SE14      30.37F
AINSWORTH      MOSUNNY   48  32  52 SE12      30.39F
BROKEN BOW     SUNNY     52  32  46 E10       30.40F
O`NEILL        SUNNY     50  24  36 SE3       30.44F
ORD            SUNNY     51  22  31 SE7       30.41F
THEDFORD       SUNNY     53  29  39 SE8       30.38F
$$

NEZ041-046>049-061>064-073>077-083>087-192000-
SOUTH CENTRAL NEBRASKA

CITY           SKY/WX    TMP DP  RH WIND       PRES   REMARKS
GRAND ISLAND   SUNNY     51  31  46 VRB5      30.45F
AURORA         SUNNY     51  26  37 SE5       30.44F
HASTINGS       SUNNY     51  30  44 S5        30.44F
HEBRON         SUNNY     53  28  37 CALM      30.45F
HOLDREGE       SUNNY     51  30  43 E9        30.40F
KEARNEY        SUNNY     51  28  41 SE7       30.43F
YORK             N/A     54  27  35 CALM      30.45F
$$

NEZ011>018-030>034-042>045-192000-
NORTHEAST NEBRASKA

CITY           SKY/WX    TMP DP  RH WIND       PRES   REMARKS
NORFOLK        SUNNY     51  23  33 NE9       30.45F
ALBION         SUNNY     52  23  33 SE6       30.44F
BLAIR          SUNNY     51  31  45 CALM      30.46F
COLUMBUS       SUNNY     53  21  28 E9G17     30.46
FREMONT        SUNNY     54  26  34 NE3       30.47F
TEKAMAH        SUNNY     51  33  50 NW5       30.47F
WAYNE          SUNNY     50  23  34 E3        30.47F
$$

NEZ050>053-065>068-078-088>093-192000-
SOUTHEAST NEBRASKA

CITY           SKY/WX    TMP DP  RH WIND       PRES   REMARKS
LINCOLN        SUNNY     55  27  34 VRB6      30.47F
OMAHA EPPLEY   MOSUNNY   54  29  38 VRB3      30.47S
BEATRICE       SUNNY     55  32  42 SE3       30.45F
FALLS CITY     SUNNY     56  28  34 MISG      30.45F
NEBRASKA CITY  SUNNY     53  32  44 CALM      30.46F
PLATTSMOUTH    SUNNY     54  29  38 NE6       30.46F
$$

NEZ044-045-051>053-067-192000-
OMAHA AREA

CITY           SKY/WX    TMP DP  RH WIND       PRES   REMARKS
OMAHA EPPLEY   MOSUNNY   54  29  38 VRB3      30.47S
BLAIR          SUNNY     51  31  45 CALM      30.46F
FREMONT        SUNNY     54  26  34 NE3       30.47F
MILLARD        SUNNY     54  31  42 E3        30.47S
OFFUTT AFB     SUNNY     54  29  38 S3        30.46F
PLATTSMOUTH    SUNNY     54  29  38 NE6       30.46F
WAHOO          FAIR      54  20  26 E3        30.47F
$$



USA.gov is the U.S. government's official web portal to all federal, state and local government web resources and services.